EW9027 Weather Reports


time (UTC)temp
C
wind
direction
speed
KPH
gust
KPH
rain 1hr
cm
rain 24hr
cm
rain mn
cm
humidity
%
barometer
mb
20260507170019 15 262 1.6 8.0 0.00 0.00 0.00 58 1013.0
20260507164514 16 257 0.0 6.4 0.00 0.00 0.00 56 1012.8
20260507163013 16 329 0.0 8.0 0.00 0.00 0.00 55 1012.7
20260507161518 16 313 3.2 8.0 0.00 0.00 0.00 53 1012.7
20260507160014 16 11 1.6 6.4 0.00 0.00 0.00 53 1012.7
20260507154512 16 309 3.2 9.7 0.00 0.00 0.00 52 1012.7
20260507153012 16 329 1.6 9.7 0.00 0.00 0.00 52 1012.6
20260507151515 17 242 3.2 14.5 0.00 0.00 0.00 51 1012.6
20260507150013 17 252 0.0 9.7 0.00 0.23 0.00 49 1012.5
20260507144508 17 115 6.4 16.1 0.00 0.23 0.00 47 1012.5
20260507143006 17 42 3.2 12.9 0.00 0.23 0.00 51 1012.4
20260507141505 17 44 4.8 11.3 0.00 0.23 0.00 54 1012.5
20260507140009 17 321 3.2 14.5 0.00 0.33 0.00 53 1012.5
20260507134516 17 193 4.8 14.5 0.00 0.33 0.00 52 1012.4
20260507133006 17 285 0.0 12.9 0.00 0.33 0.00 52 1012.5
20260507131511 17 266 4.8 11.3 0.00 0.33 0.00 54 1012.5
20260507130003 17 327 3.2 14.5 0.00 0.33 0.00 55 1012.6
20260507124501 17 259 3.2 11.3 0.00 0.33 0.00 55 1012.5
20260507123108 17 268 6.4 12.9 0.00 0.33 0.00 54 1012.4
20260507121608 17 255 3.2 12.9 0.00 0.33 0.00 54 1012.3
20260507120058 17 34 0.0 8.0 0.00 0.33 0.00 53 1012.3
20260507114601 17 281 3.2 16.1 0.00 0.33 0.00 55 1012.3
20260507113057 17 276 6.4 16.1 0.00 0.33 0.00 54 1012.2
20260507111555 18 261 1.6 14.5 0.00 0.33 0.00 52 1012.2
20260507110107 17 205 8.0 16.1 0.00 0.33 0.00 54 1012.2
20260507104554 17 203 6.4 12.9 0.00 0.33 0.00 55 1012.2
20260507103055 17 264 3.2 12.9 0.00 0.33 0.00 55 1012.3
20260507101551 17 283 1.6 16.1 0.00 0.33 0.00 58 1012.3
20260507100048 17 143 3.2 16.1 0.00 0.33 0.00 56 1012.2
20260507094548 17 99 1.6 11.3 0.00 0.33 0.00 57 1011.9
20260507093047 16 259 1.6 9.7 0.00 0.33 0.00 61 1012.0
20260507091555 15 146 3.2 12.9 0.00 0.33 0.00 64 1011.9
20260507090045 15 254 3.2 12.9 0.00 0.33 0.00 65 1011.7
20260507084541 14 293 1.6 12.9 0.00 0.33 0.00 66 1011.6
20260507083038 14 231 4.8 17.7 0.00 0.33 0.00 66 1011.5
20260507081534 15 283 1.6 9.7 0.00 0.33 0.00 65 1011.4
20260507080032 13 125 4.8 16.1 0.00 0.33 0.00 69 1011.3
20260507074542 13 281 4.8 17.7 0.00 0.33 0.00 68 1011.3
20260507073030 13 304 3.2 14.5 0.00 0.33 0.00 70 1011.2
20260507071528 14 262 4.8 14.5 0.00 0.33 0.00 70 1011.1
20260507070024 13 307 1.6 12.9 0.00 0.33 0.00 73 1011.0
20260507064522 12 236 1.6 16.1 0.00 0.33 0.00 75 1011.0
20260507063022 12 303 3.2 14.5 0.00 0.33 0.00 75 1011.1
20260507061518 12 300 3.2 12.9 0.00 0.33 0.00 77 1010.9
20260507060015 12 214 1.6 9.7 0.00 0.33 0.00 79 1010.8
20260507054512 11 259 3.2 11.3 0.00 0.33 0.00 82 1010.5
20260507053010 11 204 1.6 14.5 0.00 0.33 0.00 83 1010.1
20260507051510 11 250 1.6 8.0 0.00 0.33 0.00 84 1010.0
20260507050008 11 225 1.6 9.7 0.00 0.33 0.00 86 1009.9
20260507044506 10 214 3.2 6.4 0.00 0.33 0.00 87 1009.8
20260507043003 10 202 0.0 8.0 0.00 0.33 0.00 88 1009.6
20260507041501 10 233 1.6 6.4 0.00 0.33 0.00 89 1009.4
20260507040105 10 250 3.2 9.7 0.00 0.33 0.00 89 1009.2
20260507034601 10 187 1.6 4.8 0.00 0.33 0.00 89 1009.1
20260507033155 11 189 1.6 6.4 0.00 0.33 0.00 88 1008.9
20260507031553 11 210 0.0 11.3 0.00 0.33 0.00 87 1008.8
20260507030052 11 219 0.0 4.8 0.00 0.33 0.00 87 1008.6
20260507024557 11 253 0.0 3.2 0.00 0.33 0.00 86 1008.7
20260507023049 11 168 1.6 6.4 0.00 0.33 0.00 86 1008.6
20260507021550 11 212 1.6 8.0 0.00 0.33 0.00 87 1008.6
20260507020053 11 208 0.0 4.8 0.00 0.33 0.00 87 1008.3
20260507014549 11 247 1.6 3.2 0.00 0.33 0.00 88 1008.1
20260507013045 11 207 0.0 4.8 0.00 0.33 0.00 89 1008.3
20260507011547 11 214 1.6 6.4 0.00 0.33 0.00 89 1008.4
20260507010054 11 297 1.6 8.0 0.00 0.33 0.00 88 1008.3
20260507004541 11 279 0.0 6.4 0.00 0.33 0.00 88 1008.1
20260507003040 12 300 0.0 3.2 0.00 0.33 0.00 88 1007.9
20260507001546 12 193 0.0 3.2 0.00 0.33 0.00 88 1007.7
20260507000037 12 120 0.0 1.6 0.00 0.33 0.00 88 1007.7
20260506234535 12 257 0.0 6.4 0.00 0.33 0.00 87 1007.7
20260506233036 12 236 0.0 4.8 0.00 0.33 0.00 87 1007.5
20260506231533 12 227 0.0 4.8 0.00 0.33 0.00 85 1007.4
20260506230031 12 308 0.0 3.2 0.00 0.33 0.00 85 1007.2
20260506224530 12 257 0.0 1.6 0.00 0.33 0.00 85 1007.1
20260506223025 12 257 0.0 4.8 0.00 0.33 0.00 86 1006.9
20260506221523 12 342 0.0 6.4 0.00 0.33 0.00 85 1006.6
20260506220019 12 16 8.0 19.3 0.00 0.33 0.33 84 1005.3
20260506214618 12 301 3.2 12.9 0.00 0.33 0.33 82 1005.7
20260506213016 13 45 1.6 6.4 0.00 0.33 0.33 82 1005.9
20260506211516 13 229 1.6 6.4 0.00 0.33 0.33 83 1005.8
20260506210017 13 259 3.2 14.5 0.00 0.33 0.33 83 1005.6
20260506204516 13 31 1.6 9.7 0.00 0.33 0.33 83 1005.6
20260506203015 13 358 3.2 20.9 0.00 0.33 0.33 83 1005.4
20260506201520 13 53 0.0 3.2 0.00 0.33 0.33 84 1004.3
20260506200016 13 324 0.0 6.4 0.00 0.33 0.33 84 1004.2
20260506194514 13 2 3.2 8.0 0.00 0.33 0.33 83 1004.1
20260506193013 13 24 0.0 4.8 0.00 0.33 0.33 83 1004.2
20260506191513 13 41 3.2 14.5 0.00 0.33 0.33 82 1004.2
20260506190012 14 76 4.8 22.5 0.00 0.33 0.33 81 1003.9
20260506184520 15 24 4.8 17.7 0.00 0.33 0.33 81 1003.7
20260506183010 15 292 6.4 20.9 0.00 0.33 0.33 80 1003.3
20260506181509 16 7 3.2 11.3 0.00 0.33 0.33 77 1003.2
20260506180010 16 62 4.8 11.3 0.00 0.33 0.33 75 1003.1
20260506174511 17 349 4.8 16.1 0.00 0.33 0.33 76 1003.0
20260506173009 17 39 3.2 9.7 0.00 0.33 0.33 76 1002.9
20260506171508 18 35 1.6 3.2 0.00 0.33 0.33 72 1002.8